When you browse on this site, cookies collect data to enhance your experience and personalize the content and advertising you see.
Visit our Privacy Policy to learn more. By continuing to use the site, you agree to this use of cookies and data.
  • In Sweden
  • List of Countries
  • For 7 days
  • Water Temperature
  • Satellite Maps
  • Weather Map
  • Weather Widgets
  • user-avatar
    Login

    Hourly Weather Thomasville

    Today, 19 July, Friday

    Time Temperature Precipitation Wind Pressure Humidity
    00:00 +26°C° 0.1 mm 1 mps 739 mmHg 82%
    01:00 +25°C° 0.1 mm 2 mps 739 mmHg 86%
    02:00 +25°C° 0.5 mm 1 mps 739 mmHg 87%
    03:00 +25°C° 0.5 mm 1 mps 739 mmHg 88%
    04:00 +25°C° 0.5 mm 1 mps 739 mmHg 89%
    05:00 +26°C° 0.2 mm 1 mps 739 mmHg 87%
    06:00 +26°C° 0.2 mm 1 mps 740 mmHg 85%
    07:00 +27°C° 0.2 mm 1 mps 740 mmHg 83%
    08:00 +29°C° 0 mm 1 mps 740 mmHg 74%
    09:00 +31°C° 0 mm 1 mps 740 mmHg 65%
    10:00 +33°C° 0 mm 1 mps 741 mmHg 56%
    11:00 +34°C° 0 mm 1 mps 740 mmHg 51%
    12:00 +36°C° 0 mm 1 mps 740 mmHg 47%
    13:00 +37°C° 0 mm 1 mps 740 mmHg 42%
    14:00 +37°C° 0 mm 1 mps 740 mmHg 43%
    15:00 +38°C° 0 mm 2 mps 739 mmHg 44%
    16:00 +37°C° 0 mm 2 mps 739 mmHg 44%
    17:00 +36°C° 0 mm 2 mps 739 mmHg 51%
    18:00 +34°C° 0 mm 2 mps 739 mmHg 57%
    19:00 +32°C° 0 mm 2 mps 739 mmHg 63%
    20:00 +31°C° 0.1 mm 2 mps 739 mmHg 66%
    21:00 +30°C° 0.1 mm 2 mps 739 mmHg 69%
    22:00 +29°C° 0.1 mm 2 mps 740 mmHg 71%
    23:00 +28°C° 0 mm 2 mps 740 mmHg 73%

    Tomorrow, 20 July, Saturday

    Time Temperature Precipitation Wind Pressure Humidity
    00:00 +28°C° 0 mm 2 mps 739 mmHg 74%
    01:00 +27°C° 0 mm 1 mps 739 mmHg 75%
    02:00 +27°C° 0.2 mm 1 mps 739 mmHg 77%
    03:00 +27°C° 0.2 mm 1 mps 739 mmHg 79%
    04:00 +26°C° 0.2 mm 2 mps 739 mmHg 80%
    05:00 +27°C° 0 mm 2 mps 739 mmHg 79%
    06:00 +27°C° 0 mm 2 mps 739 mmHg 78%
    07:00 +28°C° 0 mm 2 mps 740 mmHg 77%
    08:00 +30°C° 0 mm 1 mps 740 mmHg 69%
    09:00 +33°C° 0 mm 1 mps 740 mmHg 60%
    10:00 +35°C° 0 mm 1 mps 740 mmHg 52%
    11:00 +36°C° 0 mm 1 mps 740 mmHg 49%
    12:00 +38°C° 0 mm 2 mps 740 mmHg 47%
    13:00 +38°C° 0 mm 3 mps 739 mmHg 44%
    14:00 +38°C° 0 mm 3 mps 739 mmHg 44%
    15:00 +38°C° 0 mm 3 mps 739 mmHg 45%
    16:00 +38°C° 0 mm 3 mps 739 mmHg 45%
    17:00 +36°C° 0 mm 3 mps 738 mmHg 51%
    18:00 +35°C° 0 mm 3 mps 738 mmHg 57%
    19:00 +33°C° 0 mm 3 mps 738 mmHg 63%
    20:00 +31°C° 0 mm 3 mps 739 mmHg 65%
    21:00 +30°C° 0 mm 3 mps 739 mmHg 68%
    22:00 +29°C° 0 mm 2 mps 739 mmHg 70%
    23:00 +28°C° 1.2 mm 2 mps 739 mmHg 76%

    Day after tomorrow, 21 July, Sunday

    Time Temperature Precipitation Wind Pressure Humidity
    00:00 +27°C° 1.2 mm 1 mps 739 mmHg 81%
    01:00 +26°C° 1.2 mm 1 mps 739 mmHg 87%
    02:00 +26°C° 0.1 mm 1 mps 739 mmHg 88%
    03:00 +26°C° 0.1 mm 1 mps 739 mmHg 89%
    04:00 +25°C° 0.1 mm 2 mps 738 mmHg 90%
    05:00 +26°C° 0.2 mm 2 mps 739 mmHg 89%
    06:00 +26°C° 0.2 mm 2 mps 739 mmHg 89%
    07:00 +27°C° 0.2 mm 2 mps 739 mmHg 88%
    08:00 +29°C° 0 mm 2 mps 739 mmHg 79%
    09:00 +31°C° 0 mm 2 mps 739 mmHg 71%
    10:00 +34°C° 0 mm 3 mps 739 mmHg 62%
    11:00 +35°C° 0 mm 3 mps 739 mmHg 57%
    12:00 +36°C° 0 mm 4 mps 739 mmHg 52%
    13:00 +37°C° 0 mm 4 mps 739 mmHg 47%
    14:00 +37°C° 0 mm 4 mps 738 mmHg 46%
    15:00 +38°C° 0 mm 4 mps 738 mmHg 45%
    16:00 +38°C° 0 mm 4 mps 738 mmHg 43%
    17:00 +36°C° 0 mm 3 mps 737 mmHg 49%
    18:00 +35°C° 0 mm 3 mps 737 mmHg 55%
    19:00 +32°C° 0 mm 2 mps 737 mmHg 61%
    20:00 +31°C° 0 mm 2 mps 737 mmHg 64%
    21:00 +30°C° 0 mm 2 mps 738 mmHg 66%
    22:00 +29°C° 0 mm 2 mps 738 mmHg 69%
    23:00 +28°C° 0.2 mm 2 mps 738 mmHg 73%

    22 July, Monday

    Time Temperature Precipitation Wind Pressure Humidity
    00:00 +27°C° 0.2 mm 2 mps 737 mmHg 78%
    01:00 +26°C° 0.2 mm 2 mps 737 mmHg 83%
    02:00 +26°C° 0 mm 2 mps 737 mmHg 83%
    03:00 +25°C° 0 mm 2 mps 737 mmHg 84%
    04:00 +25°C° 0 mm 1 mps 737 mmHg 85%
    05:00 +26°C° 0 mm 2 mps 737 mmHg 84%
    06:00 +26°C° 0 mm 2 mps 738 mmHg 83%
    07:00 +27°C° 0 mm 2 mps 738 mmHg 82%
    08:00 +28°C° 0 mm 2 mps 738 mmHg 75%
    09:00 +30°C° 0 mm 2 mps 738 mmHg 68%
    10:00 +31°C° 0 mm 2 mps 738 mmHg 61%
    11:00 +33°C° 0.3 mm 3 mps 738 mmHg 59%
    12:00 +34°C° 0.3 mm 3 mps 738 mmHg 57%
    13:00 +34°C° 0.3 mm 4 mps 737 mmHg 55%
    14:00 +34°C° 0.6 mm 3 mps 737 mmHg 56%
    15:00 +34°C° 0.6 mm 3 mps 737 mmHg 57%
    16:00 +34°C° 0.6 mm 3 mps 737 mmHg 57%
    17:00 +31°C° 0.7 mm 2 mps 737 mmHg 65%
    18:00 +29°C° 0.7 mm 2 mps 736 mmHg 73%
    19:00 +27°C° 0.7 mm 2 mps 736 mmHg 81%
    20:00 +26°C° 2.1 mm 1 mps 737 mmHg 84%
    21:00 +25°C° 2.1 mm 1 mps 737 mmHg 87%
    22:00 +25°C° 2.1 mm 1 mps 737 mmHg 90%
    23:00 +25°C° 0.5 mm 1 mps 737 mmHg 90%

    23 July, Tuesday

    Time Temperature Precipitation Wind Pressure Humidity
    00:00 +24°C° 0.5 mm 1 mps 737 mmHg 90%
    01:00 +24°C° 0.5 mm 1 mps 737 mmHg 90%
    02:00 +24°C° 0.1 mm 1 mps 737 mmHg 91%
    03:00 +24°C° 0.1 mm 1 mps 737 mmHg 92%
    04:00 +23°C° 0.1 mm 1 mps 737 mmHg 93%
    05:00 +24°C° 0 mm 1 mps 737 mmHg 92%
    06:00 +24°C° 0 mm 1 mps 738 mmHg 91%
    07:00 +24°C° 0 mm 2 mps 738 mmHg 90%
    08:00 +24°C° 0.5 mm 2 mps 738 mmHg 90%
    09:00 +24°C° 0.5 mm 3 mps 739 mmHg 90%
    10:00 +22°C° 0.5 mm 4 mps 739 mmHg 91%
    11:00 +22°C° 0.4 mm 4 mps 739 mmHg 89%
    12:00 +22°C° 0.4 mm 4 mps 739 mmHg 87%
    13:00 +22°C° 0.4 mm 4 mps 739 mmHg 86%
    14:00 +22°C° 1.2 mm 4 mps 739 mmHg 88%
    15:00 +21°C° 1.2 mm 4 mps 739 mmHg 91%
    16:00 +21°C° 1.2 mm 3 mps 739 mmHg 93%
    17:00 +20°C° 0.2 mm 3 mps 739 mmHg 93%
    18:00 +20°C° 0.2 mm 3 mps 740 mmHg 92%
    19:00 +20°C° 0.2 mm 2 mps 740 mmHg 92%
    20:00 +19°C° 0.3 mm 2 mps 740 mmHg 93%
    21:00 +19°C° 0.3 mm 2 mps 741 mmHg 94%
    22:00 +19°C° 0.3 mm 2 mps 741 mmHg 95%
    23:00 +19°C° 0.1 mm 2 mps 741 mmHg 95%

    24 July, Wednesday

    Time Temperature Precipitation Wind Pressure Humidity
    00:00 +19°C° 0.1 mm 2 mps 740 mmHg 95%
    01:00 +19°C° 0.1 mm 2 mps 740 mmHg 95%
    02:00 +19°C° 0.1 mm 2 mps 740 mmHg 95%
    03:00 +19°C° 0.1 mm 2 mps 740 mmHg 95%
    04:00 +20°C° 0.1 mm 1 mps 740 mmHg 95%
    05:00 +20°C° 0.4 mm 1 mps 741 mmHg 95%
    06:00 +20°C° 0.4 mm 1 mps 741 mmHg 95%
    07:00 +20°C° 0.4 mm 1 mps 741 mmHg 95%
    08:00 +20°C° 0.2 mm 2 mps 741 mmHg 91%
    09:00 +21°C° 0.2 mm 2 mps 742 mmHg 88%
    10:00 +23°C° 0.2 mm 2 mps 742 mmHg 85%
    11:00 +24°C° 0 mm 2 mps 742 mmHg 81%
    12:00 +24°C° 0 mm 2 mps 742 mmHg 77%
    13:00 +25°C° 0 mm 2 mps 742 mmHg 73%
    14:00 +26°C° 0.1 mm 2 mps 742 mmHg 73%
    15:00 +26°C° 0.1 mm 2 mps 741 mmHg 72%
    16:00 +27°C° 0.1 mm 2 mps 741 mmHg 71%
    17:00 +26°C° 0.3 mm 2 mps 741 mmHg 77%
    18:00 +25°C° 0.3 mm 2 mps 741 mmHg 83%
    19:00 +24°C° 0.3 mm 1 mps 741 mmHg 89%
    20:00 +23°C° 0.1 mm 1 mps 741 mmHg 91%
    21:00 +22°C° 0.1 mm 1 mps 742 mmHg 92%
    22:00 +19°C° 0.1 mm 0 mps 742 mmHg 94%
    23:00 +19°C° 0 mm 0 mps 742 mmHg 95%
    Show more